Time,TemperatureF,DewpointF,PressureIn,WindDirection,WindDirectionDegrees,WindSpeedMPH,WindSpeedGustMPH,Humidity,HourlyPrecipIn,Conditions,Clouds,dailyrainin,SoftwareType,DateUTC
2013-05-12 00:02:00,41.0,20.0,30.08,North,-999,-999.0,-999.0,43,-99.99,,,-99.99,,2013-05-12 05:02:00,
2013-05-12 00:12:00,41.0,20.0,30.08,North,-999,-999.0,-999.0,43,-99.99,,,-99.99,,2013-05-12 05:12:00,
2013-05-12 00:22:00,41.0,20.0,30.11,North,-999,-999.0,-999.0,43,-99.99,,,-99.99,,2013-05-12 05:22:00,
2013-05-12 00:32:00,41.0,21.0,30.11,North,-999,-999.0,-999.0,44,-99.99,,,-99.99,,2013-05-12 05:32:00,
2013-05-12 00:42:00,41.0,21.0,30.11,North,-999,-999.0,-999.0,44,-99.99,,,-99.99,,2013-05-12 05:42:00,
2013-05-12 00:52:00,41.0,21.0,30.11,North,-999,-999.0,-999.0,44,-99.99,,,-99.99,,2013-05-12 05:52:00,
2013-05-12 01:01:00,41.0,21.0,30.11,North,-999,-999.0,-999.0,44,-99.99,,,-99.99,,2013-05-12 06:01:00,
2013-05-12 01:11:00,41.0,21.0,30.11,North,-999,-999.0,-999.0,44,-99.99,,,-99.99,,2013-05-12 06:11:00,
2013-05-12 01:21:00,40.0,20.0,30.11,North,-999,-999.0,-999.0,45,-99.99,,,-99.99,,2013-05-12 06:21:00,
2013-05-12 01:32:00,40.0,20.0,30.11,North,-999,-999.0,-999.0,45,-99.99,,,-99.99,,2013-05-12 06:32:00,
2013-05-12 01:42:00,40.0,20.0,30.11,North,-999,-999.0,-999.0,45,-99.99,,,-99.99,,2013-05-12 06:42:00,
2013-05-12 01:52:00,40.0,20.0,30.11,North,-999,-999.0,-999.0,45,-99.99,,,-99.99,,2013-05-12 06:52:00,
2013-05-12 02:01:00,40.0,20.0,30.11,North,-999,-999.0,-999.0,45,-99.99,,,-99.99,,2013-05-12 07:01:00,
2013-05-12 02:11:00,40.0,20.0,30.11,North,-999,-999.0,-999.0,45,-99.99,,,-99.99,,2013-05-12 07:11:00,
2013-05-12 02:21:00,40.0,21.0,30.11,North,-999,-999.0,-999.0,46,-99.99,,,-99.99,,2013-05-12 07:21:00,
2013-05-12 02:32:00,39.0,19.0,30.11,North,-999,-999.0,-999.0,45,-99.99,,,-99.99,,2013-05-12 07:32:00,
2013-05-12 02:42:00,39.0,19.0,30.11,North,-999,-999.0,-999.0,45,-99.99,,,-99.99,,2013-05-12 07:42:00,
2013-05-12 02:52:00,39.0,20.0,30.11,North,-999,-999.0,-999.0,47,-99.99,,,-99.99,,2013-05-12 07:52:00,
2013-05-12 03:02:00,39.0,20.0,30.11,North,-999,-999.0,-999.0,47,-99.99,,,-99.99,,2013-05-12 08:02:00,
2013-05-12 03:11:00,39.0,20.0,30.11,North,-999,-999.0,-999.0,47,-99.99,,,-99.99,,2013-05-12 08:11:00,
2013-05-12 03:21:00,38.0,20.0,30.11,North,-999,-999.0,-999.0,47,-99.99,,,-99.99,,2013-05-12 08:21:00,
2013-05-12 03:32:00,38.0,20.0,30.11,North,-999,-999.0,-999.0,47,-99.99,,,-99.99,,2013-05-12 08:32:00,
2013-05-12 03:41:00,38.0,20.0,30.11,North,-999,-999.0,-999.0,47,-99.99,,,-99.99,,2013-05-12 08:41:00,
2013-05-12 03:52:00,38.0,20.0,30.11,North,-999,-999.0,-999.0,47,-99.99,,,-99.99,,2013-05-12 08:52:00,
2013-05-12 04:01:00,38.0,20.0,30.11,North,-999,-999.0,-999.0,48,-99.99,,,-99.99,,2013-05-12 09:01:00,
2013-05-12 04:11:00,38.0,20.0,30.11,North,-999,-999.0,-999.0,48,-99.99,,,-99.99,,2013-05-12 09:11:00,
2013-05-12 04:21:00,38.0,20.0,30.14,North,-999,-999.0,-999.0,48,-99.99,,,-99.99,,2013-05-12 09:21:00,
2013-05-12 04:33:00,37.0,19.0,30.14,North,-999,-999.0,-999.0,47,-99.99,,,-99.99,,2013-05-12 09:33:00,
2013-05-12 04:42:00,37.0,19.0,30.14,North,-999,-999.0,-999.0,47,-99.99,,,-99.99,,2013-05-12 09:42:00,
2013-05-12 04:53:00,37.0,20.0,30.14,North,-999,-999.0,-999.0,49,-99.99,,,-99.99,,2013-05-12 09:53:00,
2013-05-12 05:03:00,37.0,19.0,30.14,North,-999,-999.0,-999.0,48,-99.99,,,-99.99,,2013-05-12 10:03:00,
2013-05-12 05:12:00,37.0,19.0,30.14,North,-999,-999.0,-999.0,48,-99.99,,,-99.99,,2013-05-12 10:12:00,
2013-05-12 05:22:00,36.0,18.0,30.14,North,-999,-999.0,-999.0,47,-99.99,,,-99.99,,2013-05-12 10:22:00,
2013-05-12 05:33:00,36.0,18.0,30.14,North,-999,-999.0,-999.0,47,-99.99,,,-99.99,,2013-05-12 10:33:00,
2013-05-12 05:42:00,36.0,18.0,30.14,North,-999,-999.0,-999.0,47,-99.99,,,-99.99,,2013-05-12 10:42:00,
2013-05-12 05:52:00,36.0,18.0,30.14,North,-999,-999.0,-999.0,47,-99.99,,,-99.99,,2013-05-12 10:52:00,
2013-05-12 06:02:00,36.0,17.0,30.17,North,-999,-999.0,-999.0,46,-99.99,,,-99.99,,2013-05-12 11:02:00,
2013-05-12 06:12:00,36.0,17.0,30.17,North,-999,-999.0,-999.0,46,-99.99,,,-99.99,,2013-05-12 11:12:00,
2013-05-12 06:22:00,36.0,17.0,30.17,North,-999,-999.0,-999.0,46,-99.99,,,-99.99,,2013-05-12 11:22:00,
2013-05-12 06:32:00,36.0,18.0,30.17,North,-999,-999.0,-999.0,47,-99.99,,,-99.99,,2013-05-12 11:32:00,
2013-05-12 06:42:00,36.0,18.0,30.17,North,-999,-999.0,-999.0,47,-99.99,,,-99.99,,2013-05-12 11:42:00,
2013-05-12 06:52:00,42.0,21.0,30.17,North,-999,-999.0,-999.0,42,-99.99,,,-99.99,,2013-05-12 11:52:00,
2013-05-12 07:01:00,41.0,20.0,30.17,North,-999,-999.0,-999.0,42,-99.99,,,-99.99,,2013-05-12 12:01:00,
2013-05-12 07:11:00,41.0,20.0,30.17,North,-999,-999.0,-999.0,42,-99.99,,,-99.99,,2013-05-12 12:11:00,
2013-05-12 07:21:00,41.0,20.0,30.17,North,-999,-999.0,-999.0,42,-99.99,,,-99.99,,2013-05-12 12:21:00,
2013-05-12 07:32:00,61.0,32.0,30.17,North,-999,-999.0,-999.0,34,-99.99,,,-99.99,,2013-05-12 12:32:00,
2013-05-12 07:41:00,61.0,32.0,30.17,North,-999,-999.0,-999.0,34,-99.99,,,-99.99,,2013-05-12 12:41:00,
2013-05-12 07:52:00,69.0,33.0,30.17,North,-999,-999.0,-999.0,26,-99.99,,,-99.99,,2013-05-12 12:52:00,
2013-05-12 08:02:00,71.0,33.0,30.14,North,-999,-999.0,-999.0,25,-99.99,,,-99.99,,2013-05-12 13:02:00,
2013-05-12 08:11:00,71.0,33.0,30.14,North,-999,-999.0,-999.0,25,-99.99,,,-99.99,,2013-05-12 13:11:00,
2013-05-12 08:21:00,69.0,31.0,30.14,North,-999,-999.0,-999.0,24,-99.99,,,-99.99,,2013-05-12 13:21:00,
2013-05-12 08:32:00,67.0,29.0,30.14,North,-999,-999.0,-999.0,24,-99.99,,,-99.99,,2013-05-12 13:32:00,
2013-05-12 08:42:00,67.0,29.0,30.14,North,-999,-999.0,-999.0,24,-99.99,,,-99.99,,2013-05-12 13:42:00,
2013-05-12 08:52:00,63.0,27.0,30.14,North,-999,-999.0,-999.0,25,-99.99,,,-99.99,,2013-05-12 13:52:00,
2013-05-12 09:01:00,54.0,22.0,30.14,North,-999,-999.0,-999.0,28,-99.99,,,-99.99,,2013-05-12 14:01:00,
2013-05-12 09:11:00,54.0,22.0,30.14,North,-999,-999.0,-999.0,28,-99.99,,,-99.99,,2013-05-12 14:11:00,
2013-05-12 09:21:00,49.0,19.0,30.14,North,-999,-999.0,-999.0,30,-99.99,,,-99.99,,2013-05-12 14:21:00,
2013-05-12 09:32:00,47.0,20.0,30.14,North,-999,-999.0,-999.0,34,-99.99,,,-99.99,,2013-05-12 14:32:00,
2013-05-12 09:42:00,47.0,21.0,30.14,North,-999,-999.0,-999.0,35,-99.99,,,-99.99,,2013-05-12 14:42:00,
2013-05-12 09:52:00,47.0,21.0,30.14,North,-999,-999.0,-999.0,35,-99.99,,,-99.99,,2013-05-12 14:52:00,
2013-05-12 10:01:00,47.0,21.0,30.14,North,-999,-999.0,-999.0,35,-99.99,,,-99.99,,2013-05-12 15:01:00,
2013-05-12 10:11:00,47.0,21.0,30.14,North,-999,-999.0,-999.0,35,-99.99,,,-99.99,,2013-05-12 15:11:00,
2013-05-12 10:21:00,47.0,21.0,30.14,North,-999,-999.0,-999.0,35,-99.99,,,-99.99,,2013-05-12 15:21:00,
2013-05-12 10:34:00,47.0,21.0,30.14,North,-999,-999.0,-999.0,35,-99.99,,,-99.99,,2013-05-12 15:34:00,
2013-05-12 10:42:00,47.0,21.0,30.14,North,-999,-999.0,-999.0,35,-99.99,,,-99.99,,2013-05-12 15:42:00,
2013-05-12 10:52:00,48.0,22.0,30.14,North,-999,-999.0,-999.0,35,-99.99,,,-99.99,,2013-05-12 15:52:00,
2013-05-12 11:02:00,48.0,20.0,30.14,North,-999,-999.0,-999.0,33,-99.99,,,-99.99,,2013-05-12 16:02:00,
2013-05-12 11:12:00,48.0,20.0,30.14,North,-999,-999.0,-999.0,33,-99.99,,,-99.99,,2013-05-12 16:12:00,
2013-05-12 11:23:00,48.0,21.0,30.14,North,-999,-999.0,-999.0,34,-99.99,,,-99.99,,2013-05-12 16:23:00,
2013-05-12 11:33:00,48.0,20.0,30.14,North,-999,-999.0,-999.0,32,-99.99,,,-99.99,,2013-05-12 16:33:00,
2013-05-12 11:42:00,48.0,20.0,30.14,North,-999,-999.0,-999.0,32,-99.99,,,-99.99,,2013-05-12 16:42:00,
2013-05-12 11:52:00,48.0,20.0,30.14,North,-999,-999.0,-999.0,32,-99.99,,,-99.99,,2013-05-12 16:52:00,
2013-05-12 12:02:00,49.0,20.0,30.14,North,-999,-999.0,-999.0,32,-99.99,,,-99.99,,2013-05-12 17:02:00,
2013-05-12 12:12:00,49.0,20.0,30.14,North,-999,-999.0,-999.0,32,-99.99,,,-99.99,,2013-05-12 17:12:00,
2013-05-12 12:22:00,50.0,21.0,30.14,North,-999,-999.0,-999.0,31,-99.99,,,-99.99,,2013-05-12 17:22:00,
2013-05-12 12:32:00,50.0,21.0,30.14,North,-999,-999.0,-999.0,31,-99.99,,,-99.99,,2013-05-12 17:32:00,
2013-05-12 12:42:00,50.0,21.0,30.14,North,-999,-999.0,-999.0,31,-99.99,,,-99.99,,2013-05-12 17:42:00,
2013-05-12 12:52:00,51.0,21.0,30.11,North,-999,-999.0,-999.0,31,-99.99,,,-99.99,,2013-05-12 17:52:00,
2013-05-12 13:01:00,51.0,21.0,30.11,North,-999,-999.0,-999.0,31,-99.99,,,-99.99,,2013-05-12 18:01:00,
2013-05-12 13:12:00,51.0,21.0,30.11,North,-999,-999.0,-999.0,31,-99.99,,,-99.99,,2013-05-12 18:12:00,
2013-05-12 13:22:00,52.0,22.0,30.11,North,-999,-999.0,-999.0,31,-99.99,,,-99.99,,2013-05-12 18:22:00,
2013-05-12 13:32:00,52.0,22.0,30.11,North,-999,-999.0,-999.0,30,-99.99,,,-99.99,,2013-05-12 18:32:00,
2013-05-12 13:42:00,52.0,22.0,30.11,North,-999,-999.0,-999.0,30,-99.99,,,-99.99,,2013-05-12 18:42:00,
2013-05-12 13:51:00,53.0,22.0,30.11,North,-999,-999.0,-999.0,30,-99.99,,,-99.99,,2013-05-12 18:51:00,
2013-05-12 14:01:00,53.0,22.0,30.08,North,-999,-999.0,-999.0,29,-99.99,,,-99.99,,2013-05-12 19:01:00,
2013-05-12 14:11:00,53.0,22.0,30.08,North,-999,-999.0,-999.0,29,-99.99,,,-99.99,,2013-05-12 19:11:00,
2013-05-12 14:21:00,53.0,22.0,30.08,North,-999,-999.0,-999.0,30,-99.99,,,-99.99,,2013-05-12 19:21:00,
2013-05-12 14:32:00,54.0,23.0,30.08,North,-999,-999.0,-999.0,30,-99.99,,,-99.99,,2013-05-12 19:32:00,
2013-05-12 14:42:00,54.0,23.0,30.08,North,-999,-999.0,-999.0,30,-99.99,,,-99.99,,2013-05-12 19:42:00,
2013-05-12 14:52:00,54.0,23.0,30.08,North,-999,-999.0,-999.0,30,-99.99,,,-99.99,,2013-05-12 19:52:00,
2013-05-12 15:02:00,54.0,23.0,30.08,North,-999,-999.0,-999.0,30,-99.99,,,-99.99,,2013-05-12 20:02:00,
2013-05-12 15:11:00,54.0,23.0,30.08,North,-999,-999.0,-999.0,30,-99.99,,,-99.99,,2013-05-12 20:11:00,
2013-05-12 15:21:00,55.0,23.0,30.08,North,-999,-999.0,-999.0,29,-99.99,,,-99.99,,2013-05-12 20:21:00,
2013-05-12 15:32:00,55.0,23.0,30.08,North,-999,-999.0,-999.0,29,-99.99,,,-99.99,,2013-05-12 20:32:00,
2013-05-12 15:42:00,55.0,23.0,30.08,North,-999,-999.0,-999.0,29,-99.99,,,-99.99,,2013-05-12 20:42:00,
2013-05-12 15:52:00,56.0,24.0,30.08,North,-999,-999.0,-999.0,29,-99.99,,,-99.99,,2013-05-12 20:52:00,
2013-05-12 16:01:00,56.0,25.0,30.08,North,-999,-999.0,-999.0,30,-99.99,,,-99.99,,2013-05-12 21:01:00,
2013-05-12 16:11:00,56.0,25.0,30.08,North,-999,-999.0,-999.0,30,-99.99,,,-99.99,,2013-05-12 21:11:00,
2013-05-12 16:21:00,56.0,24.0,30.08,North,-999,-999.0,-999.0,29,-99.99,,,-99.99,,2013-05-12 21:21:00,
2013-05-12 16:33:00,56.0,24.0,30.08,North,-999,-999.0,-999.0,29,-99.99,,,-99.99,,2013-05-12 21:33:00,
2013-05-12 16:42:00,56.0,24.0,30.08,North,-999,-999.0,-999.0,29,-99.99,,,-99.99,,2013-05-12 21:42:00,
2013-05-12 16:53:00,56.0,24.0,30.08,North,-999,-999.0,-999.0,29,-99.99,,,-99.99,,2013-05-12 21:53:00,
2013-05-12 17:02:00,56.0,24.0,30.08,North,-999,-999.0,-999.0,29,-99.99,,,-99.99,,2013-05-12 22:02:00,
2013-05-12 17:12:00,56.0,24.0,30.08,North,-999,-999.0,-999.0,29,-99.99,,,-99.99,,2013-05-12 22:12:00,
2013-05-12 17:23:00,56.0,24.0,30.08,North,-999,-999.0,-999.0,29,-99.99,,,-99.99,,2013-05-12 22:23:00,
2013-05-12 17:33:00,56.0,24.0,30.05,North,-999,-999.0,-999.0,29,-99.99,,,-99.99,,2013-05-12 22:33:00,
2013-05-12 17:42:00,56.0,24.0,30.05,North,-999,-999.0,-999.0,29,-99.99,,,-99.99,,2013-05-12 22:42:00,
2013-05-12 17:52:00,56.0,24.0,30.05,North,-999,-999.0,-999.0,29,-99.99,,,-99.99,,2013-05-12 22:52:00,
2013-05-12 18:02:00,56.0,24.0,30.05,North,-999,-999.0,-999.0,29,-99.99,,,-99.99,,2013-05-12 23:02:00,
2013-05-12 18:12:00,56.0,24.0,30.05,North,-999,-999.0,-999.0,29,-99.99,,,-99.99,,2013-05-12 23:12:00,
2013-05-12 18:22:00,56.0,24.0,30.05,North,-999,-999.0,-999.0,29,-99.99,,,-99.99,,2013-05-12 23:22:00,
2013-05-12 18:32:00,56.0,24.0,30.05,North,-999,-999.0,-999.0,29,-99.99,,,-99.99,,2013-05-12 23:32:00,
2013-05-12 18:42:00,56.0,24.0,30.05,North,-999,-999.0,-999.0,29,-99.99,,,-99.99,,2013-05-12 23:42:00,
2013-05-12 18:52:00,56.0,24.0,30.05,North,-999,-999.0,-999.0,29,-99.99,,,-99.99,,2013-05-12 23:52:00,
2013-05-12 19:01:00,56.0,24.0,30.05,North,-999,-999.0,-999.0,29,-99.99,,,-99.99,,2013-05-13 00:01:00,
2013-05-12 19:11:00,56.0,24.0,30.05,North,-999,-999.0,-999.0,29,-99.99,,,-99.99,,2013-05-13 00:11:00,
2013-05-12 19:21:00,56.0,24.0,30.05,North,-999,-999.0,-999.0,29,-99.99,,,-99.99,,2013-05-13 00:21:00,
2013-05-12 19:32:00,55.0,23.0,30.05,North,-999,-999.0,-999.0,29,-99.99,,,-99.99,,2013-05-13 00:32:00,
2013-05-12 19:42:00,55.0,23.0,30.05,North,-999,-999.0,-999.0,29,-99.99,,,-99.99,,2013-05-13 00:42:00,
2013-05-12 19:52:00,54.0,22.0,30.05,North,-999,-999.0,-999.0,28,-99.99,,,-99.99,,2013-05-13 00:52:00,
2013-05-12 20:01:00,53.0,22.0,30.05,North,-999,-999.0,-999.0,29,-99.99,,,-99.99,,2013-05-13 01:01:00,
2013-05-12 20:11:00,53.0,22.0,30.05,North,-999,-999.0,-999.0,29,-99.99,,,-99.99,,2013-05-13 01:11:00,
2013-05-12 20:22:00,52.0,22.0,30.05,North,-999,-999.0,-999.0,30,-99.99,,,-99.99,,2013-05-13 01:22:00,
2013-05-12 20:31:00,51.0,21.0,30.05,North,-999,-999.0,-999.0,30,-99.99,,,-99.99,,2013-05-13 01:31:00,
2013-05-12 20:42:00,51.0,21.0,30.05,North,-999,-999.0,-999.0,30,-99.99,,,-99.99,,2013-05-13 01:42:00,
2013-05-12 20:52:00,50.0,20.0,30.05,North,-999,-999.0,-999.0,30,-99.99,,,-99.99,,2013-05-13 01:52:00,
2013-05-12 21:01:00,48.0,19.0,30.05,North,-999,-999.0,-999.0,31,-99.99,,,-99.99,,2013-05-13 02:01:00,
2013-05-12 21:11:00,48.0,19.0,30.05,North,-999,-999.0,-999.0,31,-99.99,,,-99.99,,2013-05-13 02:11:00,
2013-05-12 21:21:00,47.0,18.0,30.05,North,-999,-999.0,-999.0,31,-99.99,,,-99.99,,2013-05-13 02:21:00,
2013-05-12 21:32:00,45.0,18.0,30.08,North,-999,-999.0,-999.0,34,-99.99,,,-99.99,,2013-05-13 02:32:00,
2013-05-12 21:41:00,45.0,18.0,30.08,North,-999,-999.0,-999.0,34,-99.99,,,-99.99,,2013-05-13 02:41:00,
2013-05-12 21:51:00,43.0,19.0,30.08,North,-999,-999.0,-999.0,38,-99.99,,,-99.99,,2013-05-13 02:51:00,
2013-05-12 22:02:00,43.0,19.0,30.08,North,-999,-999.0,-999.0,38,-99.99,,,-99.99,,2013-05-13 03:02:00,
2013-05-12 22:11:00,43.0,19.0,30.08,North,-999,-999.0,-999.0,38,-99.99,,,-99.99,,2013-05-13 03:11:00,
2013-05-12 22:21:00,43.0,19.0,30.08,North,-999,-999.0,-999.0,38,-99.99,,,-99.99,,2013-05-13 03:21:00,
2013-05-12 22:32:00,39.0,19.0,30.08,North,-999,-999.0,-999.0,44,-99.99,,,-99.99,,2013-05-13 03:32:00,
2013-05-12 22:42:00,39.0,19.0,30.08,North,-999,-999.0,-999.0,44,-99.99,,,-99.99,,2013-05-13 03:42:00,
2013-05-12 22:53:00,38.0,18.0,30.08,North,-999,-999.0,-999.0,44,-99.99,,,-99.99,,2013-05-13 03:53:00,
2013-05-12 23:02:00,37.0,18.0,30.08,North,-999,-999.0,-999.0,46,-99.99,,,-99.99,,2013-05-13 04:02:00,
2013-05-12 23:12:00,37.0,18.0,30.08,North,-999,-999.0,-999.0,46,-99.99,,,-99.99,,2013-05-13 04:12:00,
2013-05-12 23:23:00,37.0,19.0,30.08,North,-999,-999.0,-999.0,47,-99.99,,,-99.99,,2013-05-13 04:23:00,
2013-05-12 23:32:00,36.0,19.0,30.08,North,-999,-999.0,-999.0,50,-99.99,,,-99.99,,2013-05-13 04:32:00,
2013-05-12 23:42:00,36.0,19.0,30.08,North,-999,-999.0,-999.0,50,-99.99,,,-99.99,,2013-05-13 04:42:00,
2013-05-12 23:52:00,35.0,19.0,30.08,North,-999,-999.0,-999.0,51,-99.99,,,-99.99,,2013-05-13 04:52:00,